Location: Hackberry
(29.5783°N, 96.8797°W)
Time: 12:41:16
(UTC+00:00)

A-11 Canister half - Visible Passes

Search period start: 09 November 2024 00:00
Search period end: 19 November 2024 00:00
Orbit: 1525 x 1683 km, 47.3° (Epoch: 08 November)

Date Brightness Start Highest point End Pass type
(mag) Time Alt. Az. Time Alt. Az. Time Alt. Az.
09 Nov 10.7 02:43:37 10° S 02:45:41 17° S 02:45:41 17° S visible
09 Nov 10.3 09:12:52 27° NNE 09:12:52 27° NNE 09:19:13 10° ENE visible
09 Nov 9.3 11:11:10 19° NW 11:18:15 59° NE 11:27:23 10° ESE visible
10 Nov 10.4 02:22:02 10° S 02:25:40 22° S 02:25:40 22° S visible
10 Nov 10.5 08:52:32 24° NE 08:52:32 24° NE 08:57:16 10° ENE visible
10 Nov 9.4 10:50:50 26° NW 10:56:27 57° NNE 11:05:31 10° ESE visible
11 Nov 10.2 02:00:29 10° S 02:05:41 26° SSE 02:05:41 26° SSE visible
11 Nov 11.2 04:03:23 10° SW 04:04:02 12° SW 04:04:02 12° SW visible
11 Nov 10.8 08:32:15 19° NE 08:32:15 19° NE 08:35:20 10° ENE visible
11 Nov 9.4 10:30:34 34° NNW 10:34:38 54° NNE 10:43:39 10° ESE visible
12 Nov 10.0 01:38:56 10° S 01:45:43 28° SE 01:45:43 28° SE visible
12 Nov 10.8 03:41:33 10° SW 03:44:03 20° SW 03:44:03 20° SW visible
12 Nov 11.0 08:12:00 14° NE 08:12:00 14° NE 08:13:24 10° ENE visible
12 Nov 9.4 10:10:19 43° N 10:12:48 52° NNE 10:21:47 10° ESE visible
12 Nov 9.3 12:08:51 10° WNW 12:17:46 51° SW 12:26:37 10° SSE visible
13 Nov 9.9 01:17:26 10° S 01:25:22 27° SE 01:25:44 27° ESE visible
13 Nov 10.3 03:19:42 10° SW 03:24:04 31° SW 03:24:04 31° SW visible
13 Nov 9.4 09:50:08 48° NNE 09:50:59 50° NNE 09:59:54 10° ESE visible
13 Nov 9.2 11:48:27 16° WNW 11:56:02 54° SW 12:04:58 10° SSE visible
14 Nov 10.0 00:55:56 10° S 01:03:37 25° SE 01:05:45 23° ESE visible
14 Nov 9.8 02:57:51 10° SW 03:04:05 44° SW 03:04:05 44° SW visible
14 Nov 9.6 09:29:59 46° NE 09:29:59 46° NE 09:38:02 10° ESE visible
14 Nov 9.1 11:28:19 24° WNW 11:34:18 58° SW 11:43:18 10° SSE visible
15 Nov 10.1 00:34:29 10° S 00:41:52 23° SE 00:45:44 19° E visible
15 Nov 9.3 02:36:03 10° SW 02:44:05 63° SW 02:44:05 63° SW visible
15 Nov 9.9 09:09:54 38° ENE 09:09:54 38° ENE 09:16:08 10° E visible
15 Nov 9.0 11:08:14 34° WNW 11:12:33 61° SW 11:21:38 10° SSE visible
16 Nov 10.2 00:13:04 10° S 00:20:07 22° SE 00:25:42 13° E visible
16 Nov 8.9 02:14:14 10° SW 02:24:02 83° S 02:24:02 83° S visible
16 Nov 11.1 04:21:13 10° W 04:22:22 14° W 04:22:22 14° W visible
16 Nov 10.3 08:49:50 28° E 08:49:50 28° E 08:54:14 10° E visible
16 Nov 8.9 10:48:10 48° WNW 10:50:48 65° SW 10:59:56 10° SSE visible
16 Nov 10.3 23:51:41 10° SSE 23:58:22 20° SE 00:04:58 10° E visible
17 Nov 8.9 01:52:26 10° SW 02:02:34 81° SE 02:03:57 69° ENE visible
17 Nov 10.8 03:59:13 10° W 04:02:17 21° W 04:02:17 21° W visible
17 Nov 10.8 08:29:49 20° E 08:29:49 20° E 08:32:20 10° E visible
17 Nov 8.8 10:28:09 65° WSW 10:29:03 69° SW 10:38:14 10° SE visible
17 Nov 10.4 12:28:37 10° W 12:32:50 14° WSW 12:37:04 10° SSW visible
18 Nov 9.0 01:30:39 10° SW 01:40:45 77° SE 01:43:49 50° ENE visible
18 Nov 10.4 03:37:14 10° W 03:42:09 28° WNW 03:42:09 28° WNW visible
18 Nov 11.1 08:09:49 12° E 08:09:49 12° E 08:10:26 10° E visible
18 Nov 8.9 10:08:08 69° S 10:08:08 69° S 10:16:32 10° SE visible
18 Nov 10.4 12:06:29 10° W 12:11:08 15° WSW 12:16:00 10° SSW visible
